Flag for Germany Weather past 2 weeks in Warstein, North Rhine-Westphalia, Germany

Now
39 °F

Rain. Passing clouds.


Feels Like: 34 °F
Forecast: 35 / 57 °F
Wind: 8 mph from East

Location: Paderborn / Lippstadt


UV Index: 0 (Low)

Visibility: N/A


Pressure: 29.98 "Hg

Humidity: 100%

Dew point: 39 °F

Location of WarsteinLocation

Historic Weather in Warstein

°F

Warstein temperature yesterday

Maximum temperature yesterday: 61 °F (at 4:20 PM)
Minimum temperature yesterday: 41 °F (at 5:50 AM)
Average temperature yesterday: 51 °F

Past Weeks' High & Low Weather Summary

 TemperatureHumidityPressure
High68 °F (Apr 7, 4:50 PM)100% (Apr 5, 3:20 AM)30.45 "Hg (Apr 5, 3:20 AM)
Low28 °F (Apr 16, 4:50 AM)29% (Apr 17, 5:50 PM)29.71 "Hg (Apr 3, 10:20 PM)
Average50 °F70%30.06 "Hg
* Reported Apr 3 10:20 PM — Apr 18 10:20 PM, Warstein, Weather by CustomWeather, © 2014

Note: Actual official high and low records may vary slightly from our data, if they occured in-between our weather recording intervals... More about our weather records

Advertising

Historic Weather Conditions — Data for Previous 24 hours

 ConditionsComfort  
Time TempWeatherWind HumidityBarometerVisibility
10:20 PM
Apr 18
41 °FLight rain. Partly cloudy.9 mph87%29.98 "HgN/A
9:50 PM45 °FPartly cloudy.6 mph66%29.95 "HgN/A
9:20 PM45 °FPartly sunny.6 mph66%29.95 "HgN/A
8:50 PM45 °FSunny.6 mph66%29.95 "Hg10 mi
8:20 PM46 °FSunny.6 mph62%29.92 "Hg10 mi
7:50 PM46 °FPassing clouds.7 mph62%29.92 "HgN/A
7:20 PM46 °FScattered showers. Scattered clouds.8 mph62%29.92 "HgN/A
6:50 PM46 °FScattered showers. Scattered clouds.9 mph66%29.92 "HgN/A
6:20 PM48 °FHail. Scattered clouds.8 mph62%29.92 "HgN/A
5:50 PM48 °FScattered clouds.9 mph62%29.92 "HgN/A
5:20 PM46 °FScattered clouds.9 mph66%29.92 "HgN/A
4:50 PM46 °FSprinkles. Scattered clouds.10 mph62%29.92 "HgN/A
4:20 PM48 °FSprinkles. Scattered clouds.10 mph54%29.92 "HgN/A
3:50 PM50 °FScattered clouds.9 mph50%29.92 "HgN/A
3:20 PM48 °FScattered clouds.13 mph50%29.92 "HgN/A
2:50 PM52 °FScattered clouds.9 mph47%29.92 "HgN/A
2:20 PM50 °FScattered clouds.12 mph54%29.92 "HgN/A
1:50 PM46 °FScattered clouds.7 mph57%29.92 "HgN/A
1:20 PM48 °FScattered clouds.12 mph58%29.89 "HgN/A
12:50 PM46 °FScattered clouds.10 mph66%29.89 "HgN/A
12:20 PM46 °FScattered showers. Scattered clouds.9 mph66%29.89 "HgN/A
11:50 AM45 °FScattered clouds.8 mph71%29.89 "HgN/A
11:20 AM45 °FScattered clouds.10 mph71%29.89 "HgN/A
10:50 AM43 °FBroken clouds.9 mph87%29.89 "HgN/A
10:20 AM43 °FBroken clouds.10 mph87%29.89 "HgN/A
9:50 AM41 °FDrizzle. Partly sunny.8 mph100%29.89 "HgN/A
9:20 AM41 °FDrizzle. Partly sunny.8 mph100%29.89 "HgN/A
8:50 AM41 °FPartly sunny.9 mph100%29.89 "HgN/A
8:20 AM41 °FDrizzle. Partly sunny.7 mph100%29.89 "Hg5 mi
7:50 AM41 °FPartly sunny.8 mph100%29.89 "Hg4 mi
7:20 AM41 °FPassing clouds.7 mph100%29.86 "Hg4 mi
6:50 AM41 °FPassing clouds.7 mph100%29.86 "Hg4 mi
6:20 AM41 °FPartly cloudy.7 mph100%29.86 "Hg4 mi
5:50 AM41 °FPassing clouds.6 mph100%29.86 "Hg4 mi
5:20 AM41 °FPassing clouds.7 mph100%29.86 "Hg4 mi
4:50 AM43 °FPassing clouds.8 mph100%29.86 "Hg4 mi
4:20 AM43 °FLight rain. Low clouds.7 mph100%29.86 "Hg4 mi
Weather by CustomWeather, © 2014

See weather overview